Regional Weather Roundup
Issued by NWS Green Bay, WI

Home | Current Version | Previous Version | Text Only | Print | Product List | Glossary On
Versions: 1 2 3 4 5 6 7 8 9 10 11 12 13 14 15 16 17 18 19 20 21 22 23 24 25 26 27 28 29 30 31 32 33 34 35 36 37 38 39 40 41 42 43 44 45 46 47 48 49 50
000
ASUS43 KGRB 032101
RWRGRB

NORTH-CENTRAL AND NORTHEAST WISCONSIN REGIONAL WEATHER ROUNDUP
NATIONAL WEATHER SERVICE GREEN BAY WI
400 PM CDT MON AUG 03 2020

WIZ005-009-010>012-018-019-032200-
NORTH CENTRAL WISCONSIN

CITY           SKY/WX    TMP DP  RH WIND       PRES   REMARKS
IRONWOOD       MOSUNNY   65  46  50 N6        30.17F
MANITOWISH WTR MOSUNNY   65  44  45 NE6       30.16F
ARBOR VITAE    NOT AVBL
EAGLE RIVER    CLOUDY    64  42  45 NE12      30.15F
LAND O LAKES   CLOUDY    62  46  55 N7        30.18F
RHINELANDER    CLOUDY    62  45  53 NE8       30.16F
PHILLIPS       CLOUDY    63  47  57 NE8       30.17S
ANTIGO         CLOUDY    62  48  59 NE13      30.15R
TOMAHAWK       CLOUDY    63  44  49 N5        30.16S
MERRILL        CLOUDY    67  49  51 NE14G20   30.15S
$$

WIZ013-073-032200-
NORTHEAST WISCONSIN

CITY           SKY/WX    TMP DP  RH WIND       PRES   REMARKS
IRON MOUNTAIN  CLOUDY    67  46  47 NE8       30.12
MARINETTE      NOT AVBL
OCONTO         CLOUDY    68  48  48 N9        30.09F
$$

WIZ017-030-035>037-045-032200-
CENTRAL WISCONSIN

CITY           SKY/WX    TMP DP  RH WIND       PRES   REMARKS
MEDFORD        NOT AVBL
WAUSAU         CLOUDY    68  46  45 MISG      30.12S
MOSINEE        CLOUDY    64  46  52 NW8       30.14F
MARSHFIELD     CLOUDY    67  46  47 NE9       30.13F
WISC RAPIDS    CLOUDY    69  48  47 N9        30.13S
STEVENS POINT  CLOUDY    65  47  52 N7        30.13S
WAUPACA        CLOUDY    69  49  49 N7        30.11F
SHAWANO        CLOUDY    69  48  46 N10       30.11S
CLINTONVILLE   PTSUNNY   69  47  45 NE12G17   30.11S
WAUTOMA        CLOUDY    67  51  56 NE7       30.11F
$$

WIZ038-039-048-051-032200-
FOX VALLEY

CITY           SKY/WX    TMP DP  RH WIND       PRES   REMARKS
NWS GREEN BAY  CLOUDY    66  52  60 NE15      30.09F
APPLETON       PTSUNNY   64  43  45 N12       30.09S
OSHKOSH        NOT AVBL
FOND DU LAC    CLOUDY    67  52  58 N14       30.10F
$$

WIZ022-050-052-032200-
EAST CENTRAL WISCONSIN

CITY           SKY/WX    TMP DP  RH WIND       PRES   REMARKS
EPHRAIM        NOT AVBL
WASHINGTON ISL NOT AVBL
STURGEON BAY   SUNNY     68  49  50 N18G24    30.09F
MANITOWOC      MOSUNNY   65  53  65 NE9       30.08F
SHEBOYGAN      CLOUDY    66  53  63 N12       30.08F
$$

LMZ563-521-522-541>543-032200-
LAKESHORE

STATION/POSITION TIME  TEMP    WIND        PRES    VSBY  WAVE
                       AIR SEA DIR/SP/G                  HT/PER
                 (UTC) (F)     (DEG/KT/KT) (MB)    (MI)  (FT/S)
SHEBOYGAN LKSHOR 2000   63     360/ 18/ 20   N/A
KEWAUNEE LKSHORE 2024   67      40/ 10/ 15 1018.3
NORTHPORT PIER   2040   65     330/ 12/ 18 1018.6S
N MID LAKE BUOY  2040   65 70   30/ 12/ 16 1018.4F
S GREEN BAY BUOY 2030   66      60/ 16/ 19 1018.1F
SISTER BAY LKSHO 2015   70     350/ 17/ 23   N/A
MENOMINEE LKSHOR 2024   66 75   20/ 11/ 16 1018.9
$$




USA.gov is the U.S. government's official web portal to all federal, state and local government web resources and services.